Location: Newark
(23.3970°S, 47.6010°W)
Time: 17:47:49
(UTC+00:00)

Tiros 1 - All Passes

Search period start: 19 February 2020 00:00
Search period end: 29 February 2020 00:00
Orbit: 631 x 664 km, 48.4° (Epoch: 18 February)

Date Brightness Start Highest point End Pass type
(mag) Time Alt. Az. Time Alt. Az. Time Alt. Az.
19 Feb - 01:00:02 10° SSW 01:04:24 33° SE 01:08:41 10° ENE visible
19 Feb - 02:42:23 10° WSW 02:46:29 28° NW 02:50:30 10° N night (unlit)
19 Feb - 15:07:58 10° NNE 15:09:44 12° NE 15:11:30 10° ENE daylight
19 Feb - 16:46:44 10° NW 16:51:29 71° SW 16:56:18 10° SE daylight
19 Feb - 18:32:34 10° SW 18:34:19 12° SSW 18:36:04 10° S daylight
19 Feb - 23:45:23 10° S 23:47:49 14° SSE 23:50:15 10° ESE visible
20 Feb - 01:25:42 10° SW 01:30:32 88° SE 01:35:16 10° NE visible
20 Feb - 15:31:11 10° NNW 15:35:29 35° NE 15:39:52 10° ESE daylight
20 Feb - 17:13:35 10° W 17:17:40 28° SW 17:21:49 10° SSE daylight
21 Feb - 00:10:02 10° SSW 00:14:18 30° SE 00:18:30 10° E visible
21 Feb - 01:52:11 10° WSW 01:56:26 32° NW 02:00:37 10° NNE visible
21 Feb - 14:18:58 10° NE 14:19:43 10° NE 14:20:27 10° ENE daylight
21 Feb - 15:56:40 10° NW 16:01:25 80° SW 16:06:15 10° SE daylight
21 Feb - 17:42:04 10° WSW 17:44:11 13° SSW 17:46:19 10° S daylight
21 Feb - 22:55:34 10° S 22:57:42 13° SSE 22:59:49 10° ESE visible
22 Feb - 00:35:38 10° SW 00:40:28 79° SE 00:45:14 10° NE visible
22 Feb - 02:21:17 10° WNW 02:22:11 10° NW 02:23:05 10° NW night (unlit)
22 Feb - 14:41:17 10° N 14:45:27 31° NE 14:49:41 10° ESE daylight
22 Feb - 16:23:23 10° W 16:27:35 30° SW 16:31:50 10° SSE daylight
22 Feb - 23:20:03 10° SSW 23:24:12 27° SE 23:28:18 10° E visible
23 Feb - 01:02:00 10° WSW 01:06:24 35° NW 01:10:43 10° NNE visible
23 Feb - 15:06:37 10° NW 15:11:21 88° SW 15:16:11 10° SE daylight
23 Feb - 16:51:37 10° WSW 16:54:03 14° SSW 16:56:30 10° S daylight
23 Feb - 22:05:50 10° S 22:07:34 12° SSE 22:09:17 10° SE visible
23 Feb - 23:45:34 10° SW 23:50:24 71° SE 23:55:10 10° NE visible
24 Feb - 01:30:19 10° WNW 01:32:09 12° NW 01:33:59 10° NNW visible
24 Feb - 13:51:25 10° N 13:55:25 28° NE 13:59:29 10° ESE daylight
24 Feb - 15:33:13 10° WNW 15:37:29 33° SW 15:41:50 10° SSE daylight
24 Feb - 22:30:05 10° SSW 22:34:06 25° SE 22:38:04 10° E visible
25 Feb - 00:11:51 10° WSW 00:16:21 40° NW 00:20:48 10° NNE visible
25 Feb - 14:16:35 10° NW 14:21:17 83° NE 14:26:06 10° SE daylight
25 Feb - 16:01:13 10° WSW 16:03:55 15° SSW 16:06:39 10° S daylight
25 Feb - 21:16:13 10° SSE 21:17:26 11° SSE 21:18:37 10° SE daylight
25 Feb - 22:55:31 10° SW 23:00:20 64° SE 23:05:05 10° NE visible
26 Feb - 00:39:43 10° W 00:42:07 14° NW 00:44:30 10° NNW visible
26 Feb - 13:01:33 10° N 13:05:23 25° NE 13:09:16 10° ESE daylight
26 Feb - 14:43:02 10° WNW 14:47:24 36° SW 14:51:50 10° SSE daylight
26 Feb - 21:40:07 10° SSW 21:43:59 23° SE 21:47:50 10° E daylight
26 Feb - 23:21:42 10° WSW 23:26:18 45° NW 23:30:51 10° NNE visible
27 Feb - 13:26:34 10° NW 13:31:14 74° NE 13:36:01 10° SE daylight
27 Feb - 15:10:53 10° WSW 15:13:48 16° SW 15:16:46 10° S daylight
27 Feb - 22:05:28 10° SW 22:10:15 57° SE 22:14:58 10° ENE visible
27 Feb - 23:49:16 10° W 23:52:06 16° NW 23:54:54 10° NNW visible
28 Feb - 12:11:44 10° N 12:15:21 22° NE 12:19:01 10° ESE daylight
28 Feb - 13:52:54 10° WNW 13:57:20 40° SW 14:01:50 10° SSE daylight
28 Feb - 20:50:10 10° SSW 20:53:53 21° SE 20:57:35 10° E daylight
28 Feb - 22:31:34 10° SW 22:36:15 50° NW 22:40:53 10° NNE visible
